{"data":{"norad_id":59556,"intl_designator":"2024-074Y","name":"STARLINK-31718","alt_names":[],"object_type":"PAYLOAD","status":"ACTIVE","operator":null,"country":"US","launch_date":"2024-04-18","launch_site_code":"AFETR","launch_vehicle":null,"mission":null,"orbit_class":"UNKNOWN","rcs_meters":null,"size_class":null,"mass_kg":null,"dimensions":null,"purposes":["comms"],"wikipedia_slug":null,"has_3d_model":false,"image_url":null,"decayed_at":null,"tle_current":{"epoch":"2026-05-24T17:54:03.896352Z","epoch_age_seconds":107536,"freshness":"FRESH","line1":"1 59556U 24074Y   26144.74587843  .00001147  00000+0  51205-4 0  9999","line2":"2 59556  43.0020 274.2140 0001569 284.3508  75.7169 15.27580613117644","mean_motion":15.27580613,"eccentricity":0.0001569,"inclination_deg":43.002,"raan_deg":274.214,"arg_perigee_deg":284.3508,"mean_anomaly_deg":75.7169,"bstar":5.1205e-5,"rev_number":11764,"period_min":94.266710885522,"perigee_km":481.97074068727,"apogee_km":484.12378030821,"semimajor_km":6861.1842604977,"source":"CELESTRAK","updated_at":"2026-05-25T13:38:18.983910Z"}}}